FALCON 9 R/B, 43612

Orbit data source: Space-Track

FALCON 9 R/B, 43612 is space debris in HEO originally from a launch on Mon, 10 Sep 2018 UTC launched from the Air Force Eastern Test Range (AFETR). Debris objects in space refer to the collection of defunct objects orbiting the Earth. Examples of debris include non-operational satellites, rocket bodies, and fragments generated from explosions, collisions, or faulty payload assembly.

Loading next visibility...
FALCON 9 R/B details
Identifier
43612, 2018-069B
Orbit
HEO
Last TLE update1 day ago
Origin
Flag of USSpaceX (US)
ManufacturerSpaceX
MissionSpacecraft
Bus & MotorF9ST2, Unknown motor
Mass~4,000 kg wet, ~4,000 kg dry
Launch date (UTC)
2018-09-10 (6 years ago)
Launch vehicleUnknown
Launch site
Air Force Eastern Test Range (AFETR)
Object type
Payload
Rocket body
Debris
Shape & HBRCyl, 15.53 m
Radar Cross Section39.980 m², Large (>1 m²)

Expand to show TLE details & history

TLE from 1 day ago
0 FALCON 9 R/B
1 43612U 18069B   24360.21721908  .00017702  00000-0  19023-2 0  9999
2 43612  27.0490 314.1210 5443525  66.6782 340.4822  4.93146705106521
Epoch: 2024-12-25T05:12Z
Definitive object data (Epoch: 2024-12-25T05:12:47.728Z)
Latitude-0.00002°
Longitude141.6985°
Altitude2,064.084 km
Speed8.191 km/s
True Right ascension20h 56m 26s
True Declination0° 00' 00"
Sunlit
Object was in daylight at TLE epoch
Visualization TLE readout
Latitude-9.05518°
Longitude-21.41988°
Altitude9,642.887 km
Speed4.735 km/s
Apparent Right ascension09h 40m 05s
Apparent Declination-30° 37' 51"
Sunlit
Object is in daylight
Visualization observer readout
Local Sidereal Time10:58:36
Azimuth197.61° SSW
Elevation17.138°
Doppler factor1
Orbital elements
Apogee altitude16,143.655 km
Perigee altitude266.718 km
Semi-major axis14,583.323 km
Eccentricity0.5443525
Inclination27.049°
RAAN314.121°
Arg. of periapsis66.6782°
True anomaly293.42985°
Mean anomaly340.4822°
Eccentric anomaly320.74773°
Mean motion1.23242 °/min
BSTAR0.0019023
Orbital period292.11 mins
Loading maneuver chart data...
Loading historical data...
Loading historical data...
Loading historical data...
Loading historical data...
Loading historical data...
Loading historical data...
Loading historical data...
Other satellites on launch #69 in the year 2018 (2018-09-10 UTC)

FALCON 9 R/B Visibility forecast

Observer location: undefined°, undefined

Span
Click to sort rows by Start time (UTC) header in descending order
Start Az.
Max El. time (UTC)
Max El. Az.
Max El.
End time (UTC)
End Az.
68 mins2024-12-26 11:37:14.235Z197.595° SSW2024-12-26 11:37:14.235Z197.595° SSW16.391°2024-12-26 12:45:14.235Z172.096° S
19 mins2024-12-27 06:19:14.235Z214.902° SW2024-12-27 06:23:14.235Z175.364° S22.693°2024-12-27 06:38:14.235Z132.363° SE
|